1485147600.57,48704,9.5,73868.0,-7.25,-39.97,-39.97,0,*5F
1485147601.86,48705,9.44,73868.0,-7.27,-39.79,-39.97,0,*5C
1485147603.15,48706,9.44,73866.3,-7.27,-39.59,-39.71,0,*55
1485147604.42,48707,9.5,73870.3,-7.25,-39.71,-39.79,0,*54
1485147605.67,48708,9.5,73868.8,-7.25,-39.41,-39.53,0,*50
1485147606.9,48709,9.5,73868.3,-7.25,-39.35,-39.53,0,*52
1485147608.17,48710,9.5,73872.3,-7.25,-39.59,-39.71,0,*50
1485147609.46,48711,9.5,73868.3,-7.27,-39.59,-39.71,0,*53
1485147610.71,48712,9.5,73870.5,-7.25,-39.53,-39.41,0,*5B
1485147611.95,48713,9.5,73872.5,-7.25,-39.71,-39.91,0,*57
1485147613.2,48714,9.5,73868.8,-7.25,-39.59,-39.91,0,*5A
1485147614.47,48715,9.44,73868.0,-7.25,-39.59,-39.59,0,*5F
1485147615.72,48716,9.44,73870.3,-7.25,-39.53,-39.53,0,*5C
1485147616.99,48717,9.5,73870.5,-7.25,-39.59,-39.59,0,*5D
1485147618.25,48718,9.44,73870.0,-7.25,-39.71,-39.71,0,*52
1485147619.49,48719,9.5,73870.0,-7.23,-39.53,-39.65,0,*50
1485147620.69,48720,9.5,73872.0,-7.23,-39.47,-39.47,0,*5F
1485147621.93,48721,9.5,73874.0,-7.21,-39.65,-39.65,0,*5C
1485147623.14,48722,9.5,73874.0,-7.23,-39.65,-39.85,0,*53
1485147624.37,48723,9.5,73870.5,-7.21,-39.47,-39.65,0,*5E
1485147625.63,48724,9.5,73872.8,-7.23,-39.53,-39.71,0,*5B
1485147626.88,48725,9.5,73872.3,-7.23,-39.53,-39.53,0,*5A
1485147628.09,48726,9.5,73870.5,-7.23,-39.47,-39.65,0,*59
1485147629.31,48727,9.5,73872.3,-7.23,-39.65,-39.65,0,*58
1485147630.59,48728,9.5,73874.0,-7.21,-39.53,-39.71,0,*55
1485147631.8,48729,9.5,73874.3,-7.23,-39.65,-39.85,0,*58
1485147633.02,48730,9.5,73868.3,-7.21,-39.35,-39.47,0,*59
1485147634.27,48731,9.5,73870.5,-7.21,-39.47,-39.53,0,*58
1485147635.55,48732,9.5,73870.8,-7.21,-39.29,-39.29,0,*5E
1485147636.79,48733,9.5,73870.8,-7.21,-39.47,-39.65,0,*5F
1485147638.02,48734,9.5,73874.3,-7.21,-39.47,-39.65,0,*58
1485147639.27,48735,9.5,73874.8,-7.21,-39.29,-39.47,0,*51
1485147640.49,48736,9.5,73870.5,-7.21,-39.35,-39.47,0,*5F
1485147641.72,48737,9.5,73872.3,-7.21,-39.35,-39.47,0,*5E
1485147643.0,48738,9.5,73870.3,-7.17,-39.29,-39.59,0,*56
1485147644.27,48739,9.5,73874.5,-7.17,-39.59,-39.65,0,*5F
1485147645.54,48740,9.44,73870.0,-7.17,-39.47,-39.59,0,*51
1485147646.82,48741,9.5,73870.0,-7.21,-39.53,-39.71,0,*5A
1485147648.05,48742,9.5,73870.3,-7.21,-39.47,-39.65,0,*59
1485147649.29,48743,9.5,73868.3,-7.21,-39.65,-39.91,0,*53
1485147650.52,48744,9.5,73872.8,-7.21,-39.47,-39.47,0,*5F
1485147651.77,48745,9.5,73870.3,-7.15,-39.29,-39.41,0,*57
1485147653.0,48746,9.5,73872.5,-7.17,-39.47,-39.47,0,*58
1485147654.27,48747,9.44,73870.0,-7.17,-39.59,-39.65,0,*56
1485147655.54,48748,9.5,73872.8,-7.17,-39.59,-39.65,0,*59
1485147656.83,48749,9.5,73872.0,-7.17,-39.59,-39.79,0,*55
1485147658.13,48750,9.5,73874.3,-7.17,-39.59,-39.79,0,*5D
1485147659.39,48751,9.5,73872.8,-7.17,-39.59,-39.85,0,*5F
1485147660.66,48752,9.5,73872.3,-7.17,-39.79,-39.85,0,*5E
1485147661.9,48753,9.5,73870.3,-7.15,-39.59,-39.65,0,*51
1485147663.15,48754,9.5,73872.8,-7.15,-39.59,-39.65,0,*56
1485147664.42,48755,9.5,73870.3,-7.17,-39.59,-39.65,0,*55
1485147665.71,48756,9.44,73868.0,-7.17,-39.59,-39.79,0,*5B
1485147667.01,48757,9.5,73868.8,-7.17,-39.59,-39.79,0,*5A
1485147668.28,48758,9.5,73872.3,-7.17,-39.59,-39.65,0,*58
1485147669.55,48759,9.5,73870.8,-7.17,-39.59,-39.85,0,*57
1485147670.79,48760,9.5,73872.5,-7.17,-39.65,-39.65,0,*5C
1485147672.08,48761,9.5,73874.3,-7.17,-39.59,-39.79,0,*5F
1485147673.37,48762,9.44,73870.3,-7.17,-39.79,-39.97,0,*5E
1485147674.64,48763,9.5,73870.0,-7.17,-39.65,-39.97,0,*52
1485147675.85,48764,9.5,73874.8,-7.15,-39.65,-39.85,0,*54
1485147677.11,48765,9.5,73870.8,-7.17,-39.65,-39.79,0,*54
1485147678.35,48766,9.5,73872.3,-7.17,-39.65,-39.85,0,*54
1485147679.64,48767,9.5,73872.5,-7.17,-39.79,-39.97,0,*5B
1485147680.93,48768,9.5,73874.3,-7.17,-39.79,-39.97,0,*54
1485147682.17,48769,9.5,73870.8,-7.17,-39.65,-39.85,0,*5B
1485147683.4,48770,9.5,73876.5,-7.17,-39.65,-39.85,0,*53
1485147684.67,48771,9.5,73872.3,-7.17,-39.79,-39.85,0,*5F
1485147685.93,48772,9.5,73872.5,-7.17,-39.65,-40.09,0,*5B
1485147687.2,48773,9.5,73872.0,-7.17,-39.85,-40.21,0,*5E
1485147688.43,48774,9.5,73872.8,-7.17,-39.65,-39.85,0,*57
1485147689.64,48775,9.44,73868.5,-7.15,-39.65,-39.85,0,*54
1485147690.88,48776,9.5,73874.0,-7.17,-39.65,-39.85,0,*55
1485147692.17,48777,9.5,73874.8,-7.17,-39.79,-39.97,0,*5A
1485147693.41,48778,9.5,73872.3,-7.17,-39.65,-39.65,0,*55
1485147694.68,48779,9.5,73872.0,-7.17,-39.59,-39.85,0,*55
1485147695.94,48780,9.5,73874.8,-7.17,-39.65,-39.79,0,*5F
1485147697.15,48781,9.5,73872.5,-7.15,-39.47,-39.65,0,*51
1485147698.42,48782,9.5,73874.8,-7.15,-39.59,-39.79,0,*50
1485147699.72,48783,9.5,73874.5,-7.17,-39.59,-39.79,0,*53
1485147700.98,48784,9.5,73872.8,-7.17,-39.65,-39.79,0,*5B
1485147702.25,48785,9.5,73872.8,-7.17,-39.65,-39.79,0,*5A
1485147703.48,48786,9.5,73874.8,-7.17,-39.65,-39.85,0,*5A
1485147704.72,48787,9.5,73874.8,-7.17,-39.65,-39.85,0,*5B
1485147705.98,48788,9.5,73872.3,-7.17,-39.65,-39.79,0,*57
1485147707.22,48789,9.5,73872.0,-7.15,-39.47,-39.59,0,*56
1485147708.49,48790,9.5,73876.8,-7.17,-39.59,-39.65,0,*5C
1485147709.73,48791,9.5,73874.3,-7.15,-39.59,-39.85,0,*51
1485147710.99,48792,9.44,73870.3,-7.15,-39.79,-39.97,0,*53
1485147712.26,48793,9.5,73874.5,-7.15,-39.79,-39.97,0,*52
1485147713.47,48794,9.5,73874.5,-7.15,-39.65,-39.85,0,*5B
1485147714.71,48795,9.5,73872.5,-7.15,-39.65,-39.79,0,*59
1485147715.97,48796,9.5,73874.8,-7.17,-39.59,-39.85,0,*54
1485147717.24,48797,9.5,73872.8,-7.15,-39.79,-39.97,0,*56
1485147718.5,48798,9.5,73872.3,-7.17,-39.85,-40.09,0,*51
1485147719.77,48799,9.5,73870.8,-7.17,-39.85,-40.09,0,*50
1485147721.04,48800,9.5,73872.3,-7.17,-39.65,-40.09,0,*51
1485147722.31,48801,9.5,73872.3,-7.15,-39.79,-40.09,0,*5F
1485147723.6,48802,9.5,73874.8,-7.17,-39.79,-40.09,0,*5E
1485147724.89,48803,9.5,73874.5,-7.17,-39.97,-40.09,0,*5F
1485147726.15,48804,9.5,73872.5,-7.17,-40.03,-40.09,0,*5B
1485147727.41,48805,9.5,73872.0,-7.17,-39.85,-40.21,0,*50
1485147728.68,48806,9.5,73876.0,-7.17,-39.85,-40.09,0,*59
1485147729.91,48807,9.5,73874.3,-7.15,-39.85,-40.21,0,*50
1485147731.15,48808,9.5,73876.5,-7.17,-39.65,-39.85,0,*53
1485147732.42,48809,9.5,73874.3,-7.15,-39.79,-40.09,0,*57
1485147733.68,48810,9.44,73870.0,-7.17,-39.85,-39.97,0,*57
1485147734.94,48811,9.5,73870.8,-7.17,-39.65,-39.97,0,*58
1485147736.24,48812,9.5,73870.5,-7.17,-39.79,-40.09,0,*5F
1485147737.51,48813,9.5,73874.8,-7.15,-39.79,-40.09,0,*5C
1485147738.77,48814,9.44,73870.0,-7.17,-39.65,-39.97,0,*5D
1485147740.01,48815,9.5,73868.3,-7.17,-39.65,-39.85,0,*5F
1485147741.27,48816,9.5,73868.8,-7.17,-39.65,-39.79,0,*5F
1485147742.51,48817,9.5,73870.5,-7.17,-39.65,-39.85,0,*5D
1485147743.75,48818,9.5,73870.5,-7.15,-39.65,-39.79,0,*53
1485147744.99,48819,9.5,73870.0,-7.17,-39.65,-39.65,0,*5D
1485147746.26,48820,9.5,73872.0,-7.17,-39.59,-39.65,0,*58
1485147747.52,48821,9.44,73866.8,-7.17,-39.59,-39.85,0,*57
1485147748.76,48822,9.5,73870.3,-7.17,-39.65,-39.85,0,*5B
1485147750.03,48823,9.5,73868.8,-7.15,-39.59,-39.59,0,*56
1485147751.29,48824,9.44,73870.5,-7.17,-39.59,-39.85,0,*52
1485147752.54,48825,9.5,73868.5,-7.15,-39.59,-39.65,0,*5F
1485147753.75,48826,9.5,73870.5,-7.15,-39.65,-39.85,0,*5D
1485147754.98,48827,9.5,73872.0,-7.15,-39.65,-39.79,0,*5F
1485147756.28,48828,9.5,73870.3,-7.17,-39.79,-39.79,0,*5F
1485147757.52,48829,9.44,73870.8,-7.15,-39.79,-39.85,0,*5F
1485147758.75,48830,9.44,73868.8,-7.15,-39.65,-39.97,0,*59
1485147759.99,48831,9.5,73874.3,-7.15,-39.79,-39.85,0,*56
1485147761.29,48832,9.5,73872.5,-7.17,-39.79,-40.09,0,*5D
1485147762.55,48833,9.5,73870.0,-7.17,-39.65,-39.97,0,*58
1485147763.79,48834,9.5,73868.5,-7.15,-39.65,-39.79,0,*5D
1485147765.0,48835,9.5,73870.5,-7.15,-39.65,-39.65,0,*51
1485147766.21,48836,9.5,73874.3,-7.15,-39.65,-39.85,0,*5C
1485147767.42,48837,9.5,73874.5,-7.15,-39.65,-39.85,0,*5D
1485147768.66,48838,9.44,73870.0,-7.15,-39.65,-39.79,0,*51
1485147769.87,48839,9.5,73874.0,-7.15,-39.65,-39.65,0,*5D
1485147771.13,48840,9.44,73872.3,-7.15,-39.41,-39.59,0,*5A
1485147772.37,48841,9.5,73872.3,-7.15,-39.59,-39.85,0,*53
1485147773.61,48842,9.5,73872.3,-7.15,-39.79,-39.85,0,*52
1485147774.81,48843,9.44,73868.0,-7.15,-39.65,-39.85,0,*5E
1485147776.02,48844,9.5,73870.8,-7.15,-39.65,-39.85,0,*59
1485147777.24,48845,9.5,73872.8,-7.15,-39.65,-39.65,0,*56
1485147778.44,48846,9.44,73870.0,-7.15,-39.65,-39.85,0,*5B
1485147779.65,48847,9.44,73872.3,-7.15,-39.65,-39.85,0,*5A
1485147780.86,48848,9.5,73872.8,-7.15,-39.65,-39.85,0,*55
1485147782.07,48849,9.5,73872.8,-7.15,-39.65,-39.85,0,*54
1485147783.34,48850,9.5,73870.5,-7.15,-39.79,-39.97,0,*52
1485147784.57,48851,9.44,73870.8,-7.15,-39.65,-39.79,0,*5E
1485147785.84,48852,9.44,73870.3,-7.13,-39.79,-39.91,0,*50
1485147787.12,48853,9.5,73870.5,-7.13,-39.59,-39.79,0,*55
1485147788.38,48854,9.5,73874.8,-7.13,-39.71,-39.91,0,*5E
1485147789.64,48855,9.5,73876.5,-7.13,-39.71,-39.91,0,*5F
1485147790.88,48856,9.5,73874.8,-7.15,-39.65,-39.79,0,*59
1485147792.12,48857,9.5,73872.8,-7.15,-39.65,-39.79,0,*58
1485147793.41,48858,9.5,73874.8,-7.13,-39.59,-39.79,0,*5E
1485147794.7,48859,9.5,73874.3,-7.13,-39.59,-39.79,0,*5F
1485147795.93,48860,9.5,73872.0,-7.15,-39.85,-40.09,0,*5B
1485147797.17,48861,9.5,73874.3,-7.15,-39.65,-39.79,0,*5D
1485147798.43,48862,9.5,73874.3,-7.13,-39.71,-40.03,0,*5E
1485147799.69,48863,9.5,73874.8,-7.13,-39.59,-39.91,0,*50
1485147800.98,48864,9.5,73874.5,-7.13,-39.59,-39.79,0,*51
1485147802.22,48865,9.5,73874.5,-7.15,-39.65,-39.79,0,*59
1485147803.48,48866,9.5,73874.5,-7.15,-39.79,-39.97,0,*57
1485147804.75,48867,9.5,73874.0,-7.15,-39.79,-40.09,0,*5F
1485147805.99,48868,9.5,73872.0,-7.15,-39.65,-39.97,0,*54
1485147807.19,48869,9.5,73874.5,-7.15,-39.65,-39.85,0,*56
1485147808.46,48870,9.44,73872.8,-7.15,-39.79,-39.97,0,*50
1485147809.7,48871,9.5,73872.3,-7.15,-39.65,-39.79,0,*5C
1485147810.96,48872,9.44,73872.0,-7.17,-39.65,-39.79,0,*5D
1485147812.2,48873,9.5,73874.5,-7.15,-39.65,-39.79,0,*5E
1485147813.44,48874,9.5,73876.3,-7.15,-39.65,-39.79,0,*59
1485147814.65,48875,9.44,73876.5,-7.15,-39.65,-39.85,0,*5B
1485147815.88,48876,9.44,73874.8,-7.15,-39.59,-39.85,0,*57
1485147817.09,48877,9.44,73872.5,-7.15,-39.65,-39.85,0,*59
1485147818.3,48878,9.44,73876.5,-7.15,-39.65,-39.85,0,*56
1485147819.54,48879,9.44,73874.5,-7.15,-39.65,-39.97,0,*54
1485147820.8,48880,9.44,73874.5,-7.15,-39.79,-39.97,0,*5F
1485147822.04,48881,9.5,73876.0,-7.15,-39.65,-39.79,0,*53
1485147823.31,48882,9.5,73872.0,-7.15,-39.59,-39.79,0,*5F
1485147824.6,48883,9.5,73876.8,-7.17,-39.59,-39.79,0,*5C
1485147825.84,48884,9.5,73878.8,-7.15,-39.59,-39.85,0,*5A
1485147827.11,48885,9.5,73878.5,-7.15,-39.79,-40.21,0,*59
1485147828.37,48886,9.5,73872.8,-7.15,-39.79,-39.97,0,*59
1485147829.63,48887,9.5,73872.3,-7.15,-39.97,-40.09,0,*51
1485147830.87,48888,9.44,73870.3,-7.15,-39.85,-40.21,0,*57
1485147832.1,48889,9.5,73874.5,-7.15,-39.85,-39.97,0,*55
1485147833.31,48890,9.44,73870.3,-7.15,-39.65,-39.85,0,*50
1485147834.52,48891,9.5,73874.3,-7.15,-39.65,-39.85,0,*51
1485147835.73,48892,9.5,73878.5,-7.15,-39.65,-39.85,0,*52
1485147836.97,48893,9.44,73874.5,-7.15,-39.65,-39.79,0,*50
1485147838.21,48894,9.5,73872.8,-7.15,-39.65,-40.09,0,*5E
1485147839.46,48895,9.44,73872.3,-7.13,-39.71,-39.91,0,*53
1485147840.7,48896,9.44,73872.0,-7.13,-39.91,-40.15,0,*5C
1485147841.96,48897,9.44,73874.5,-7.13,-39.59,-39.85,0,*5E
1485147843.17,48898,9.5,73876.3,-7.15,-39.65,-39.85,0,*58
1485147844.4,48899,9.44,73872.3,-7.15,-39.79,-39.85,0,*54
1485147845.61,48900,9.44,73874.5,-7.15,-39.65,-39.85,0,*58
1485147846.82,48901,9.44,73874.5,-7.15,-39.65,-39.85,0,*59
1485147848.06,48902,9.5,73874.5,-7.15,-39.79,-39.85,0,*57
1485147849.3,48903,9.44,73874.5,-7.15,-39.79,-39.85,0,*56
1485147850.57,48904,9.44,73872.0,-7.15,-39.79,-39.97,0,*52
1485147851.8,48905,9.44,73874.5,-7.15,-39.65,-39.97,0,*5E
1485147853.06,48906,9.44,73874.5,-7.13,-39.71,-39.91,0,*58
1485147854.32,48907,9.44,73874.0,-7.13,-39.71,-39.91,0,*59
1485147855.58,48908,9.44,73874.3,-7.13,-39.79,-39.91,0,*5E
1485147856.82,48909,9.44,73872.5,-7.15,-39.65,-39.79,0,*52
1485147858.06,48910,9.5,73878.8,-7.15,-39.85,-40.29,0,*5F
1485147859.31,48911,9.5,73878.3,-7.15,-39.97,-40.21,0,*55
1485147860.54,48912,9.44,73872.5,-7.15,-40.03,-40.29,0,*5D
1485147861.81,48913,9.5,73878.3,-7.15,-39.79,-39.97,0,*54
1485147863.04,48914,9.44,73874.5,-7.15,-39.65,-39.97,0,*5E
1485147864.27,48915,9.44,73868.3,-7.13,-39.91,-40.03,0,*51
1485147865.54,48916,9.5,73874.0,-7.15,-39.79,-39.97,0,*51
1485147866.81,48917,9.44,73872.3,-7.15,-39.79,-40.09,0,*59
1485147868.05,48918,9.44,73872.5,-7.15,-39.79,-39.85,0,*5C
1485147869.28,48919,9.5,73874.5,-7.17,-39.65,-39.85,0,*52
1485147870.54,48920,9.5,73874.3,-7.15,-39.97,-40.09,0,*5D
1485147871.81,48921,9.5,73874.3,-7.17,-39.85,-40.09,0,*5D
1485147873.04,48922,9.44,73874.0,-7.15,-39.65,-39.97,0,*5B
1485147874.31,48923,9.44,73872.5,-7.15,-39.79,-39.97,0,*57
1485147875.57,48924,9.44,73872.0,-7.15,-39.79,-39.97,0,*50
1485147876.78,48925,9.5,73874.5,-7.15,-39.65,-39.85,0,*5F
1485147878.05,48926,9.44,73870.5,-7.15,-39.79,-39.97,0,*52
1485147879.28,48927,9.44,73874.5,-7.15,-39.65,-39.79,0,*5E
1485147880.49,48928,9.44,73870.3,-7.15,-39.65,-39.85,0,*52
1485147881.76,48929,9.44,73872.8,-7.15,-39.79,-39.97,0,*5D
1485147883.02,48930,9.5,73872.3,-7.15,-39.97,-40.09,0,*5C
1485147884.29,48931,9.44,73868.3,-7.15,-39.79,-40.09,0,*5D
1485147885.53,48932,9.5,73872.0,-7.15,-39.85,-40.09,0,*5D
1485147886.76,48933,9.5,73872.8,-7.15,-39.85,-40.09,0,*5C
1485147888.03,48934,9.5,73874.5,-7.15,-39.79,-40.09,0,*58
1485147889.27,48935,9.44,73870.3,-7.15,-39.65,-39.79,0,*5D
1485147890.52,48936,9.5,73872.5,-7.15,-39.59,-39.65,0,*5C
1485147891.79,48937,9.44,73872.5,-7.13,-39.53,-39.59,0,*5E
1485147893.0,48938,9.44,73872.3,-7.15,-39.65,-39.85,0,*53
1485147894.21,48939,9.44,73872.0,-7.15,-39.65,-39.85,0,*52
1485147895.48,48940,9.44,73870.5,-7.15,-39.79,-39.97,0,*52
1485147896.74,48941,9.44,73874.0,-7.15,-39.79,-39.79,0,*53
1485147897.95,48942,9.44,73870.0,-7.15,-39.65,-39.85,0,*5E
1485147899.21,48943,9.44,73870.0,-7.13,-39.71,-39.91,0,*59
1485147900.5,48944,9.44,73872.0,-7.13,-39.59,-39.79,0,*52
1485147901.79,48945,9.44,73868.5,-7.13,-39.59,-39.79,0,*53
1485147903.0,48946,9.44,73870.3,-7.15,-39.65,-39.85,0,*5A
1485147904.23,48947,9.44,73870.3,-7.15,-39.85,-39.97,0,*56
1485147905.47,48948,9.44,73874.0,-7.15,-39.65,-40.09,0,*5E
1485147906.71,48949,9.44,73868.8,-7.15,-39.65,-39.97,0,*56
1485147907.94,48950,9.44,73870.0,-7.15,-39.85,-40.09,0,*59
1485147909.21,48951,9.44,73868.3,-7.13,-39.79,-39.91,0,*52
1485147910.47,48952,9.44,73870.8,-7.13,-39.59,-39.91,0,*53
1485147911.76,48953,9.44,73870.5,-7.13,-39.59,-39.79,0,*54
1485147913.05,48954,9.44,73868.8,-7.13,-39.59,-39.79,0,*53
1485147914.31,48955,9.44,73868.3,-7.13,-39.71,-39.91,0,*5E
1485147915.59,48956,9.44,73870.0,-7.13,-39.59,-39.79,0,*51
1485147916.88,48957,9.44,73868.5,-7.13,-39.71,-39.71,0,*52
1485147918.15,48958,9.44,73868.3,-7.15,-39.79,-39.97,0,*5B
1485147919.38,48959,9.5,73872.8,-7.15,-39.85,-39.97,0,*59
1485147920.62,48960,9.44,73870.8,-7.15,-39.65,-39.97,0,*5D
1485147921.9,48961,9.44,73870.0,-7.13,-39.59,-39.71,0,*5D
1485147923.18,48962,9.44,73864.8,-7.13,-39.53,-39.71,0,*54
1485147924.44,48963,9.5,73874.0,-7.13,-39.59,-39.91,0,*51
1485147925.71,48964,9.44,73872.3,-7.15,-39.79,-39.97,0,*54
1485147926.95,48965,9.44,73868.0,-7.15,-39.65,-39.79,0,*58
1485147928.18,48966,9.44,73872.5,-7.15,-39.79,-39.85,0,*55
1485147929.45,48967,9.44,73868.8,-7.13,-39.53,-39.53,0,*51
1485147930.67,48968,9.44,73872.5,-7.15,-39.47,-39.65,0,*58
1485147931.95,48969,9.44,73868.5,-7.13,-39.59,-39.71,0,*55
1485147933.24,48970,9.5,73874.3,-7.13,-39.59,-39.71,0,*5D
1485147934.52,48971,9.44,73872.5,-7.13,-39.53,-39.79,0,*5E
1485147935.78,48972,9.44,73872.3,-7.13,-39.71,-39.91,0,*5B
1485147937.07,48973,9.44,73868.0,-7.13,-39.59,-39.79,0,*56
1485147938.35,48974,9.44,73868.3,-7.13,-39.59,-39.71,0,*59
1485147939.64,48975,9.44,73872.8,-7.13,-39.59,-39.71,0,*58
1485147940.92,48976,9.5,73872.0,-7.13,-39.53,-39.79,0,*59
1485147942.2,48977,9.44,73872.0,-7.13,-39.53,-39.79,0,*58
1485147943.45,48978,9.44,73870.3,-7.13,-39.71,-39.91,0,*51
1485147944.72,48979,9.44,73872.8,-7.13,-39.59,-39.91,0,*5A
1485147945.98,48980,9.44,73870.0,-7.13,-39.59,-39.91,0,*5C
1485147947.27,48981,9.5,73874.5,-7.13,-39.59,-39.79,0,*5B
1485147948.54,48982,9.44,73870.8,-7.13,-39.53,-39.53,0,*5A
1485147949.79,48983,9.5,73876.0,-7.11,-39.41,-39.41,0,*59
1485147951.07,48984,9.44,73874.8,-7.13,-39.53,-39.71,0,*5C
1485147952.3,48985,9.44,73870.8,-7.11,-39.71,-39.91,0,*51
1485147953.56,48986,9.5,73872.8,-7.13,-39.71,-39.91,0,*50
1485147954.85,48987,9.44,73872.5,-7.13,-39.71,-39.79,0,*57
1485147956.14,48988,9.44,73874.8,-7.13,-39.59,-39.79,0,*52
1485147957.42,48989,9.5,73876.0,-7.13,-39.59,-39.79,0,*53
1485147958.68,48990,9.44,73868.5,-7.13,-39.71,-39.91,0,*57
1485147959.97,48991,9.44,73872.8,-7.13,-39.71,-39.79,0,*50
1485147961.22,48992,9.44,73874.5,-7.13,-39.35,-39.59,0,*51
1485147962.51,48993,9.44,73878.3,-7.13,-39.59,-39.79,0,*58
1485147963.77,48994,9.5,73874.3,-7.13,-39.59,-39.91,0,*59
1485147965.06,48995,9.44,73872.3,-7.13,-39.59,-39.79,0,*5E
1485147966.32,48996,9.5,73872.5,-7.13,-39.79,-40.03,0,*5C
1485147967.58,48997,9.44,73872.8,-7.13,-39.79,-40.03,0,*5D
1485147968.84,48998,9.44,73874.3,-7.11,-39.59,-39.79,0,*51
1485147970.1,48999,9.44,73874.5,-7.13,-39.71,-39.91,0,*5E
1485147971.36,49000,9.44,73874.0,-7.13,-39.79,-40.03,0,*5B
1485147972.62,49001,9.44,73868.5,-7.11,-39.71,-39.79,0,*53
1485147973.91,49002,9.44,73872.0,-7.13,-39.59,-39.71,0,*50
1485147975.17,49003,9.44,73874.0,-7.11,-39.59,-39.71,0,*53
1485147976.42,49004,9.44,73870.3,-7.11,-39.53,-39.53,0,*5E
1485147977.67,49005,9.44,73872.0,-7.13,-39.35,-39.53,0,*5D
1485147978.92,49006,9.5,73874.0,-7.11,-39.53,-39.59,0,*56
1485147980.18,49007,9.44,73874.5,-7.11,-39.53,-39.79,0,*55
1485147981.46,49008,9.44,73872.3,-7.13,-39.53,-39.59,0,*5A
1485147982.68,49009,9.5,73874.3,-7.13,-39.35,-39.35,0,*51
1485147983.9,49010,9.44,73872.3,-7.11,-39.23,-39.35,0,*5C
1485147985.18,49011,9.44,73874.0,-7.13,-39.41,-39.59,0,*51
1485147986.42,49012,9.44,73872.5,-7.11,-39.59,-39.91,0,*5D
1485147987.71,49013,9.5,73874.8,-7.13,-39.59,-39.71,0,*50
1485147988.96,49014,9.5,73874.5,-7.11,-39.53,-39.59,0,*55
1485147990.19,49015,9.44,73874.8,-7.11,-39.35,-39.41,0,*5D
1485147991.41,49016,9.5,73874.3,-7.11,-39.23,-39.35,0,*5A
1485147992.66,49017,9.44,73870.5,-7.11,-39.53,-39.59,0,*56
1485147993.93,49018,9.44,73870.5,-7.11,-39.59,-39.71,0,*59
1485147995.19,49019,9.44,73872.5,-7.11,-39.59,-39.71,0,*58
1485147996.45,49020,9.44,73872.0,-7.11,-39.53,-39.59,0,*52
1485147997.7,49021,9.44,73872.3,-7.11,-39.41,-39.41,0,*59
1485147998.94,49022,9.44,73874.5,-7.11,-39.53,-39.53,0,*5A
1485148000.19,49023,9.44,73872.0,-7.09,-39.29,-39.47,0,*5A
1485148001.45,49024,9.5,73876.0,-7.11,-39.41,-39.59,0,*55
1485148002.73,49025,9.44,73872.8,-7.09,-39.15,-39.29,0,*5B
1485148003.96,49026,9.44,73874.8,-7.07,-39.35,-39.53,0,*59
1485148005.22,49027,9.44,73874.0,-7.09,-39.53,-39.65,0,*53
1485148006.5,49028,9.44,73878.5,-7.09,-39.71,-39.97,0,*51
1485148007.71,49029,9.44,73874.5,-7.07,-39.65,-39.85,0,*58
1485148008.97,49030,9.44,73876.8,-7.07,-39.53,-39.71,0,*5E
1485148010.25,49031,9.44,73874.3,-7.09,-39.53,-39.71,0,*51
1485148011.48,49032,9.44,73872.8,-7.09,-39.65,-39.85,0,*5C
1485148012.71,49033,9.44,73870.5,-7.09,-39.65,-39.85,0,*5D
1485148013.99,49034,9.44,73876.3,-7.09,-39.53,-39.71,0,*54
1485148015.27,49035,9.5,73878.5,-7.09,-39.53,-39.71,0,*55
1485148016.53,49036,9.44,73872.0,-7.09,-39.65,-39.97,0,*5B
1485148017.81,49037,9.44,73874.0,-7.09,-39.53,-39.71,0,*57
1485148019.09,49038,9.44,73870.3,-7.09,-39.53,-39.71,0,*58
1485148020.35,49039,9.44,73870.3,-7.09,-39.65,-39.97,0,*54
1485148021.62,49040,9.44,73874.8,-7.09,-39.53,-39.71,0,*57
1485148022.9,49041,9.44,73872.3,-7.09,-39.53,-39.71,0,*56
1485148024.14,49042,9.44,73872.8,-7.09,-39.65,-39.85,0,*5B
1485148025.42,49043,9.44,73874.0,-7.09,-39.71,-39.97,0,*5C
1485148026.68,49044,9.44,73874.5,-7.09,-39.65,-39.97,0,*5E
1485148027.97,49045,9.5,73874.8,-7.09,-39.71,-40.09,0,*53
1485148029.22,49046,9.44,73870.3,-7.09,-39.53,-39.85,0,*5A
1485148030.45,49047,9.44,73870.0,-7.09,-39.85,-39.85,0,*50
1485148031.71,49048,9.44,73870.8,-7.09,-39.85,-39.97,0,*5C
1485148032.98,49049,9.44,73874.5,-7.09,-39.85,-40.09,0,*54
1485148034.26,49050,9.44,73870.8,-7.09,-39.71,-39.97,0,*5E
1485148035.52,49051,9.5,73874.8,-7.11,-39.71,-39.79,0,*56
1485148036.78,49052,9.5,73876.3,-7.11,-39.71,-39.71,0,*5D
1485148038.05,49053,9.5,73874.5,-7.11,-39.71,-39.79,0,*54
1485148039.31,49054,9.44,73872.8,-7.11,-39.59,-39.79,0,*59
1485148040.55,49055,9.44,73874.5,-7.11,-39.79,-39.91,0,*5C
1485148041.76,49056,9.44,73870.3,-7.11,-39.91,-40.03,0,*5C
1485148043.02,49057,9.44,73872.5,-7.09,-39.71,-39.85,0,*5A
1485148044.28,49058,9.44,73874.0,-7.07,-39.71,-39.97,0,*58
1485148045.54,49059,9.44,73874.8,-7.09,-39.85,-39.97,0,*5C
1485148046.8,49060,9.44,73870.5,-7.09,-39.71,-39.85,0,*5E
1485148048.03,49061,9.44,73872.8,-7.09,-39.65,-39.85,0,*5A
1485148049.26,49062,9.44,73874.5,-7.11,-39.71,-40.03,0,*55
1485148050.5,49063,9.5,73874.5,-7.11,-39.79,-40.03,0,*5C
1485148051.74,49064,9.44,73872.3,-7.11,-39.79,-40.15,0,*5C
1485148052.94,49065,9.44,73874.5,-7.11,-39.91,-40.03,0,*5C
1485148054.18,49066,9.44,73874.3,-7.11,-39.79,-40.15,0,*5E
1485148055.47,49067,9.44,73870.0,-7.13,-39.71,-39.79,0,*51
1485148056.73,49068,9.44,73872.0,-7.09,-39.71,-39.85,0,*56
1485148057.96,49069,9.44,73874.8,-7.09,-39.65,-39.85,0,*52
1485148059.22,49070,9.44,73872.5,-7.09,-39.71,-40.15,0,*58
1485148060.49,49071,9.44,73872.8,-7.09,-39.85,-40.09,0,*5F
1485148061.72,49072,9.44,73874.3,-7.11,-39.79,-39.91,0,*59
1485148062.96,49073,9.44,73874.5,-7.11,-39.59,-39.91,0,*5A
1485148064.21,49074,9.44,73870.5,-7.11,-39.79,-40.15,0,*5D
1485148065.47,49075,9.44,73872.0,-7.09,-39.85,-40.09,0,*5B
1485148066.73,49076,9.44,73872.3,-7.09,-39.85,-39.97,0,*51
1485148067.99,49077,9.44,73872.5,-7.09,-39.85,-40.09,0,*59
1485148069.23,49078,9.44,73874.3,-7.11,-39.79,-39.91,0,*53
1485148070.44,49079,9.44,73870.5,-7.11,-39.91,-40.15,0,*56
1485148071.67,49080,9.44,73874.0,-7.13,-39.91,-39.91,0,*50
1485148072.92,49081,9.44,73874.8,-7.11,-39.79,-39.91,0,*55
1485148074.15,49082,9.44,73874.5,-7.11,-39.79,-40.03,0,*53
1485148075.36,49083,9.44,73876.0,-7.11,-39.91,-40.15,0,*53
1485148076.6,49084,9.44,73872.8,-7.11,-39.71,-39.91,0,*58
1485148077.84,49085,9.44,73872.0,-7.11,-39.79,-40.15,0,*53
1485148079.1,49086,9.44,73872.3,-7.13,-39.79,-40.03,0,*55
1485148080.33,49087,9.44,73872.3,-7.11,-39.79,-40.03,0,*56
1485148081.57,49088,9.44,73874.0,-7.11,-39.79,-40.03,0,*59
1485148082.81,49089,9.44,73872.3,-7.11,-39.79,-40.03,0,*58
1485148084.04,49090,9.44,73874.3,-7.11,-39.71,-39.91,0,*5D
1485148085.27,49091,9.44,73872.0,-7.13,-39.91,-40.03,0,*55
1485148086.49,49092,9.44,73874.3,-7.11,-39.91,-40.15,0,*53
1485148087.72,49093,9.44,73874.5,-7.11,-39.79,-40.03,0,*53
1485148088.96,49094,9.44,73878.0,-7.11,-39.79,-40.03,0,*54
1485148090.19,49095,9.44,73872.0,-7.13,-39.91,-40.03,0,*51
1485148091.42,49096,9.44,73876.0,-7.11,-39.79,-40.03,0,*56
1485148092.63,49097,9.44,73872.5,-7.11,-39.91,-40.15,0,*56
1485148093.89,49098,9.44,73874.0,-7.13,-39.91,-40.21,0,*5C
1485148095.13,49099,9.44,73874.8,-7.11,-39.79,-40.15,0,*5E
1485148096.34,49100,9.44,73872.3,-7.11,-39.91,-40.15,0,*59
1485148097.63,49101,9.44,73872.3,-7.13,-39.79,-40.21,0,*5B
1485148098.89,49102,9.44,73868.8,-7.13,-39.79,-40.03,0,*58
1485148100.13,49103,9.44,73874.0,-7.11,-39.79,-40.03,0,*5B
1485148101.36,49104,9.44,73872.8,-7.11,-39.79,-40.03,0,*5C
1485148102.63,49105,9.44,73870.0,-7.13,-39.79,-40.15,0,*58
1485148103.84,49106,9.44,73874.8,-7.11,-39.91,-40.15,0,*5F
1485148105.1,49107,9.44,73874.5,-7.13,-39.79,-39.91,0,*58
1485148106.31,49108,9.44,73872.5,-7.11,-39.91,-40.03,0,*56
1485148107.59,49109,9.44,73874.0,-7.13,-39.97,-40.21,0,*53
1485148108.8,49110,9.44,73874.0,-7.11,-39.91,-40.15,0,*58
1485148110.03,49111,9.44,73872.0,-7.11,-39.79,-40.03,0,*58
1485148111.29,49112,9.44,73872.5,-7.13,-39.79,-39.91,0,*5C
1485148112.52,49113,9.44,73874.5,-7.13,-39.91,-40.03,0,*5E